Torna al catalogo

STARLINK-31836

AttivoComunicazioniVLEO
NORAD 59724·PAYLOAD·🇺🇸 United States

Lanciato May 10, 2024 da Vandenberg Space Force Base

Loading…

Prossimi Passaggi (prossime 24 ore)

TLE

AggiornatoSource: CelesTrak SupGP

Epoca: Sep 14, 2026, 20:33 UTC

1 59724C 24088S   26257.85673611 -.00014428  00000+0 -46406-3 0  2578
2 59724  53.1587 339.8394 0001109  81.7881 305.1170 15.31703600    15

Traccia STARLINK-31836 in tempo reale con AllMySat

Download on the App Store